Location: Dötzum
(52.0808°N, 9.8063°E)
Time: 06:01:47
(UTC+00:00)

Cosmos 2218 Rocket - Pass Details

Date: 27 May 2022
Orbit: 956 x 1005 km, 82.9° (Epoch: 26 June)

Event Time Altitude Azimuth Distance (km) Brightness Sun altitude
Rises 02:06:29 0° 350° (N) 3,668 7.7 -8.0°
Reaches altitude 10° 02:09:00 10° 352° (N) 2,723 7.0 -7.7°
Maximum altitude 02:15:14 75° 78° (ENE) 1,017 4.3 -7.1°
Drops below altitude 10° 02:21:32 10° 164° (SSE) 2,739 6.1 -6.4°
Sets 02:24:03 0° 166° (SSE) 3,691 6.7 -6.2°
